Home > Weather > King's Lynn > Past weeks

Flag for United Kingdom Weather for the Past 2 Weeks in King's Lynn, England, United Kingdom

Now
39 °F

Passing clouds.


Feels Like: 32 °F
Forecast: 35 / 52 °F
Wind: 10 mph from West

Location: Marham

Current Time: Apr 30, 2016 at 12:37:36 AM

Latest Report: Apr 29, 2016 at 11:50 PM


Visibility: N/A

Pressure: 29.92 "Hg

Humidity: 81%

Dew Point: 34 °F

Location of King's LynnLocation

Historic Weather in King's Lynn — Graph

°F

King's Lynn Temperature Yesterday

Maximum temperature yesterday: 54 °F (at 3:50 PM)
Minimum temperature yesterday: 34 °F (at 4:50 AM)
Average temperature yesterday: 44 °F

High & Low Weather Summary for the Past Weeks

 TemperatureHumidityPressure
High57 °F (Apr 21, 11:50 AM)100% (Apr 15, 6:50 AM)30.48 "Hg (Apr 15, 6:50 AM)
Low30 °F (Apr 28, 3:50 AM)32% (Apr 23, 1:50 PM)29.45 "Hg (Apr 16, 1:50 AM)
Average43 °F75%29.97 "Hg
* Reported Apr 14 9:50 PM — Apr 29 9:50 PM, King's Lynn, Weather by CustomWeather, © 2016

Note: Actual official high and low records may vary slightly from our data, if they occured in-between our weather recording intervals... More about our weather records

Advertising

King's Lynn Weather History for the Previous 24 Hours

Scroll right to see more
 ConditionsComfort  
Time TempWeatherWind HumidityBarometerVisibility
9:50 PM
Fri, Apr 29
41 °FQuite cool.9 mph70%29.89 "HgN/A
8:50 PM45 °FPassing clouds.13 mph57%29.86 "HgN/A
7:50 PM46 °FScattered clouds.21 mph53%29.83 "HgN/A
6:50 PM48 °FBroken clouds.20 mph50%29.80 "HgN/A
5:50 PM50 °FPassing clouds.22 mph47%29.77 "HgN/A
4:50 PM50 °FScattered clouds.25 mph47%29.74 "HgN/A
3:50 PM54 °FPartly sunny.24 mph44%29.74 "HgN/A
2:50 PM52 °FPassing clouds.29 mph44%29.74 "HgN/A
1:50 PM50 °FScattered showers. Partly sunny.22 mph50%29.71 "HgN/A
12:50 PM50 °FScattered showers. Partly sunny.26 mph40%29.71 "HgN/A
11:50 AM48 °FPartly sunny.26 mph50%29.71 "HgN/A
10:50 AM46 °FPartly sunny.22 mph53%29.71 "HgN/A
9:50 AM45 °FPartly sunny.23 mph57%29.71 "HgN/A
8:50 AM43 °FScattered clouds.20 mph66%29.71 "HgN/A
7:50 AM41 °FSunny.17 mph76%29.71 "Hg10 mi
6:50 AM36 °FSunny.10 mph87%29.71 "Hg10 mi
5:50 AM34 °FClear.12 mph93%29.71 "Hg10 mi
4:50 AM34 °FClear.8 mph93%29.71 "Hg10 mi
3:50 AM37 °FPassing clouds.14 mph87%29.71 "HgN/A
2:50 AM39 °FPassing clouds.15 mph87%29.71 "HgN/A
1:50 AM39 °FPassing clouds.13 mph87%29.71 "HgN/A
12:50 AM41 °FPassing clouds.14 mph87%29.71 "HgN/A
Weather by CustomWeather, © 2016

See weather overviewHow to use our weather pages